DateTimeUTC,F1_A11,F1_S11,BsB_S11,BsG_S11,BsR_S11,BbsB_S11,BbsG_S11,BbsR_S11,BaB_A11,BaG_A11,BaR_A11,Tu_S11,T_S11,Uu_S11,U_S11,P_S11,T1_A11
2021-08-21T11:00:00Z,00000200,20000000,,,,,,,-000.30,-000.26,-000.10,18.9,25.6,09.5,06.3,0676.8,31.0
2021-08-21T11:01:00Z,00000200,20000000,,,,,,,0000.23,-000.40,0000.18,18.9,25.6,09.5,06.3,0676.8,31.0
2021-08-21T11:02:00Z,00000200,20000000,,,,,,,-000.20,0000.36,-000.13,18.9,25.6,09.5,06.3,0676.8,31.0
2021-08-21T11:03:00Z,00000200,60000000,,,,,,,0000.58,0000.60,0000.53,18.9,25.6,09.5,06.3,0676.8,31.0
2021-08-21T11:04:00Z,00000200,40000000,0002.35,0001.76,0000.91,-000.14,0000.34,0000.27,0000.41,0000.44,0000.50,19.0,25.5,09.4,06.3,0677.8,31.0
2021-08-21T11:05:00Z,00000200,00000000,0001.81,0001.45,0001.08,-000.12,0000.15,-000.15,0000.54,0000.66,-000.03,19.1,25.4,09.4,06.4,0677.9,31.0
2021-08-21T11:06:00Z,00000200,00000000,0002.27,0002.43,0001.24,0000.47,0000.21,0000.37,0000.43,0000.20,0000.54,19.1,25.4,09.3,06.4,0677.9,31.0
2021-08-21T11:07:00Z,00000200,00000000,0002.40,0002.09,0001.00,0000.58,0000.46,0000.04,0000.68,0000.54,0000.51,19.1,25.4,09.3,06.4,0677.9,31.0
2021-08-21T11:08:00Z,00000200,00000000,0001.60,0002.12,0001.20,0000.37,0000.05,0000.22,0000.39,0000.48,0000.28,19.2,25.4,09.2,06.3,0677.9,31.0
2021-08-21T11:09:00Z,00000200,00000000,0001.92,0002.01,0001.14,0000.64,-000.12,0000.20,0000.39,0000.44,0000.17,19.2,25.4,09.1,06.2,0677.9,31.0
2021-08-21T11:10:00Z,00000200,00000000,0002.52,0002.20,0000.96,0000.37,0000.33,0000.06,0000.81,0000.73,0000.55,19.2,25.4,09.1,06.3,0677.9,31.0
2021-08-21T11:11:00Z,00000200,00000000,0002.45,0001.98,0000.78,0000.53,0000.04,0000.07,0000.77,0000.35,0000.78,19.2,25.4,09.2,06.3,0678.0,31.0
2021-08-21T11:12:00Z,00000200,00000000,0002.39,0001.98,0001.05,0000.09,0000.05,0000.17,0000.22,0000.32,-000.14,19.2,25.4,09.2,06.3,0678.0,31.0
2021-08-21T11:13:00Z,00000200,00000000,0001.48,0001.89,0001.13,0000.67,0000.30,0000.05,0000.69,0000.88,0000.65,19.2,25.4,09.1,06.2,0677.9,31.0
2021-08-21T11:14:00Z,00000200,00000000,0002.50,0002.06,0001.37,0000.49,0000.25,0000.48,0000.48,0000.40,0000.48,19.2,25.4,09.1,06.2,0677.9,31.0
2021-08-21T11:15:00Z,00000200,00000000,0002.17,0001.41,0001.03,0000.28,0000.22,0000.07,0000.49,0000.76,0000.37,19.2,25.4,09.1,06.2,0677.9,31.0
2021-08-21T11:16:00Z,00000200,00000000,0002.43,0001.77,0001.36,0000.04,0000.33,0000.39,0000.65,0000.47,0000.65,19.2,25.4,09.1,06.2,0677.9,31.0
2021-08-21T11:17:00Z,00000200,00000000,0002.46,0001.90,0001.19,0000.07,0000.21,0000.50,0000.58,0000.58,0000.08,19.2,25.5,09.1,06.2,0677.9,31.0
2021-08-21T11:18:00Z,00000200,00000000,0002.29,0002.10,0000.92,0000.03,0000.27,0000.23,0000.77,0000.05,0000.67,19.2,25.5,09.0,06.2,0677.9,31.0
2021-08-21T11:19:00Z,00000200,00000000,0002.95,0001.88,0001.03,0000.70,0000.29,0000.19,0000.34,0000.60,0000.15,19.3,25.5,09.0,06.2,0677.9,31.0
2021-08-21T11:20:00Z,00000200,00000000,0001.98,0001.97,0001.22,0000.62,0000.03,0000.25,0000.41,0000.79,0000.39,19.3,25.5,09.0,06.1,0677.9,31.0
2021-08-21T11:21:00Z,00000200,00000000,0002.03,0001.52,0000.91,0000.24,0000.39,0000.18,0000.59,0000.21,0001.13,19.3,25.5,09.0,06.1,0677.9,31.0
2021-08-21T11:22:00Z,00000200,00000000,0002.06,0001.72,0000.95,-000.09,-000.04,-000.00,0000.79,0000.68,-000.04,19.3,25.5,09.1,06.2,0678.0,31.0
2021-08-21T11:23:00Z,00000200,00000000,0002.23,0001.90,0001.27,0000.03,0000.36,0000.25,0000.43,0000.64,0000.36,19.3,25.5,09.1,06.2,0678.0,31.0
2021-08-21T11:24:00Z,00000200,00000000,0001.81,0002.09,0001.10,0000.66,0000.17,0000.37,0000.67,0000.32,0000.60,19.3,25.5,08.9,06.1,0678.0,31.0
2021-08-21T11:25:00Z,00000200,00000000,0002.55,0001.93,0000.93,0000.75,-000.01,0000.06,0000.48,0000.90,0000.17,19.3,25.5,09.0,06.2,0678.0,31.0
2021-08-21T11:26:00Z,00000200,00000000,0002.13,0002.18,0000.77,0000.01,0000.62,0000.22,0000.43,0000.05,0000.46,19.3,25.5,09.0,06.2,0678.0,31.1
2021-08-21T11:27:00Z,00000200,00000000,0001.32,0002.03,0001.15,0000.69,0000.24,0000.10,0000.48,0000.84,0000.12,19.3,25.5,08.9,06.1,0678.0,31.0
2021-08-21T11:28:00Z,00000200,00000000,0002.21,0001.92,0001.00,-000.38,0000.22,0000.13,0000.76,0000.38,0000.45,19.3,25.5,08.9,06.1,0678.0,31.0
2021-08-21T11:29:00Z,00000200,00000000,0001.19,0001.63,0001.34,-000.46,0000.06,0000.51,0000.32,0000.64,0000.61,19.3,25.5,08.8,06.0,0678.0,31.0
2021-08-21T11:30:00Z,00000200,00000000,0002.28,0002.06,0001.01,0000.54,0000.01,0000.37,0000.62,0000.45,0000.52,19.3,25.5,08.8,06.0,0678.0,31.0
2021-08-21T11:31:00Z,00000200,00000000,0001.73,0001.68,0000.68,0000.87,0000.46,0000.29,0000.67,0000.48,0000.37,19.4,25.5,08.8,06.0,0678.0,31.0
2021-08-21T11:32:00Z,00000200,00000000,0001.94,0001.83,0001.32,-000.42,0000.49,0000.35,0000.66,0000.39,0000.27,19.4,25.5,08.8,06.0,0678.1,31.0
2021-08-21T11:33:00Z,00000200,00000000,0002.20,0001.88,0001.24,0000.12,0000.53,0000.61,0000.52,0000.39,0000.41,19.4,25.5,08.8,06.1,0678.1,31.0
2021-08-21T11:34:00Z,00000200,00000000,0001.94,0001.72,0001.27,0000.55,0000.36,0000.33,0000.41,0000.32,0000.57,19.4,25.5,08.8,06.1,0678.1,31.0
2021-08-21T11:35:00Z,00000200,00000000,0002.29,0001.70,0001.00,-000.07,0000.48,0000.27,0000.72,0000.77,0000.53,19.4,25.5,08.8,06.0,0678.1,31.0
2021-08-21T11:36:00Z,00000200,00000000,0001.83,0001.99,0001.03,0000.44,0000.12,0000.34,0000.52,0000.55,0000.24,19.4,25.5,08.9,06.1,0678.1,31.1
2021-08-21T11:37:00Z,00000200,00000000,0001.92,0002.07,0001.09,-000.20,0000.53,0000.07,0000.45,0000.36,0000.06,19.4,25.6,08.9,06.1,0678.1,31.1
2021-08-21T11:38:00Z,00000200,00000000,0002.03,0002.18,0001.26,0000.39,0000.20,0000.48,0000.58,0000.84,0000.36,19.4,25.5,08.9,06.1,0678.1,31.0
2021-08-21T11:39:00Z,00000200,00000000,0002.23,0001.81,0001.22,0000.17,0000.07,0000.05,0000.90,0000.45,0001.05,19.4,25.6,08.9,06.1,0678.1,31.0
2021-08-21T11:40:00Z,00000200,00000000,0001.46,0001.86,0001.39,0000.41,0000.40,0000.21,0000.44,0000.39,0000.17,19.4,25.6,08.8,06.0,0678.1,31.0
2021-08-21T11:41:00Z,00000200,00000000,0002.49,0001.63,0001.38,0000.66,0000.10,0000.35,0000.45,0000.70,0000.35,19.4,25.6,08.9,06.1,0678.1,31.0
2021-08-21T11:42:00Z,00000200,00000000,0002.17,0001.90,0000.83,0000.73,0000.19,-000.08,0000.39,0000.24,0000.40,19.4,25.6,08.8,06.0,0678.1,31.0
2021-08-21T11:43:00Z,00000200,00000000,0002.83,0002.02,0001.10,0000.25,0000.35,0000.17,0000.75,0000.69,0000.61,19.4,25.6,08.8,06.1,0678.1,31.0
2021-08-21T11:44:00Z,00000200,00000000,0001.77,0001.79,0000.90,0000.15,0000.24,0000.14,0000.60,0000.59,0000.14,19.4,25.6,08.8,06.1,0678.1,31.0
2021-08-21T11:45:00Z,00000200,00000000,0001.96,0001.67,0001.08,0000.55,0000.49,0000.16,0000.54,0000.24,0000.62,19.4,25.6,08.9,06.1,0678.2,31.1
2021-08-21T11:46:00Z,00000200,00000000,0000.88,0001.59,0001.21,-000.34,0000.36,0000.48,0000.73,0000.58,0000.18,19.5,25.6,08.9,06.1,0678.2,31.0
2021-08-21T11:47:00Z,00000200,00000000,0001.70,0001.86,0001.11,0000.58,0000.27,0000.29,0000.25,0000.51,0000.33,19.5,25.6,08.9,06.1,0678.2,31.1
2021-08-21T11:48:00Z,00000200,00000000,0001.13,0002.08,0000.97,0000.77,0000.33,0000.20,0000.66,0000.62,0000.86,19.5,25.6,08.8,06.1,0678.2,31.0
2021-08-21T11:49:00Z,00000200,00000000,0001.62,0001.61,0001.23,0000.49,0000.30,0000.57,0000.44,0000.16,0000.20,19.5,25.6,08.8,06.1,0678.2,31.1
2021-08-21T11:50:00Z,00000200,00000000,0001.90,0002.02,0001.34,0000.41,0000.36,0000.36,0000.51,0000.81,0000.13,19.4,25.6,08.7,06.0,0678.2,31.0
2021-08-21T11:51:00Z,00000200,00000000,0001.96,0001.42,0001.12,0000.56,0000.18,0000.22,0000.69,0000.51,0000.63,19.5,25.6,08.8,06.0,0678.2,31.0
2021-08-21T11:52:00Z,00000200,00000000,0001.81,0001.55,0001.06,-000.13,0000.12,0000.47,0000.43,0000.60,0000.22,19.5,25.6,08.8,06.0,0678.2,31.1
2021-08-21T11:53:00Z,00000200,00000000,0002.28,0001.65,0000.88,-000.12,0000.19,0000.47,0000.74,0000.65,0000.77,19.5,25.7,08.7,06.0,0678.2,31.0
2021-08-21T11:54:00Z,00000200,00000000,0002.35,0001.67,0001.20,0000.47,0000.52,0000.21,0000.64,0000.53,0000.14,19.5,25.6,08.9,06.1,0678.2,31.0
2021-08-21T11:55:00Z,00000200,00000000,0002.71,0001.81,0001.09,0000.50,0000.10,0000.07,0000.55,0000.58,0000.58,19.5,25.7,08.8,06.1,0678.2,31.0
2021-08-21T11:56:00Z,00000200,00000000,0001.88,0001.93,0001.08,0000.25,0000.32,0000.29,0000.32,0000.41,0000.07,19.5,25.7,08.8,06.1,0678.3,31.1
2021-08-21T11:57:00Z,00000200,40000000,,,,,,,0000.65,0000.45,0000.63,19.5,25.7,08.6,05.9,0678.3,31.0
2021-08-21T11:58:00Z,00000200,60000000,,,,,,,-000.52,-000.32,-000.04,19.2,25.8,09.0,06.1,0677.3,31.1
2021-08-21T11:59:00Z,00000200,20000000,,,,,,,-000.10,-000.35,-000.64,19.2,25.9,08.9,05.9,0677.3,31.1
